Regional Weather Roundup
Issued by NWS

Home | Current Version | Previous Version | Text Only | Print | Product List | Glossary On
Versions: 1 2 3 4 5 6 7 8 9 10 11 12 13 14 15 16 17 18 19 20 21 22 23 24 25 26 27 28 29 30 31 32 33 34 35 36 37 38 39 40 41 42 43 44 45 46 47 48 49 50
000
ASUS43 KMKX 271200
RWRWI

WISCONSIN REGIONAL WEATHER ROUNDUP
NATIONAL WEATHER SERVICE MILWAUKEE/SULLIVAN WI
600 AM CST FRI FEB 27 2015

NOTE: "FAIR" INDICATES FEW OR NO CLOUDS BELOW 12,000 FEET WITH NO
SIGNIFICANT WEATHER AND/OR OBSTRUCTIONS TO VISIBILITY.

WIZ001-002-006>008-014>016-023>028-271300-
NORTHWEST WISCONSIN

CITY           SKY/WX    TMP DP  RH WIND       PRES   REMARKS
SUPERIOR ARPT  PTCLDY    -9 -14  77 SW7       30.48R WCI -24
ASHLAND        CLEAR     -7 -14  71 SW7       30.45R WCI -21
6HR MIN TEMP:  -7; 6HR MAX TEMP:  -1;

HAYWARD        PTCLDY   -18 -25  70 CALM      30.42S
6HR MIN TEMP: -19; 6HR MAX TEMP: -13;

SIREN          CLEAR     -9 -15  76 CALM      30.48R
CUMBERLAND     CLEAR     -8 -15  71 W3        30.44R
RICE LAKE      CLEAR    -13 -19  77 CALM      30.48R
6HR MIN TEMP: -13; 6HR MAX TEMP:  -4;

CHETEK         CLEAR    -13 -17  81 CALM      30.47S
LADYSMITH      CLEAR    -18 -24  73 CALM      30.45R
6HR MIN TEMP: -18; 6HR MAX TEMP:  -6;

EAU CLAIRE     FAIR      -8 -14  74 SW5       30.50R WCI -19
6HR MIN TEMP:  -9; 6HR MAX TEMP:  -2;

MENOMONIE      CLEAR     -5 -12  71 SW3       30.50S
NEW RICHMOND   CLEAR     -9 -14  78 CALM      30.49S
OSCEOLA        CLEAR    -11 -16  77 CALM      30.53R
$$

WIZ003>005-009-010-017-018-271300-
NORTH CENTRAL WISCONSIN

CITY           SKY/WX    TMP DP  RH WIND       PRES   REMARKS
MANITOWISH WTR PTCLDY   -24 -30  73 CALM      30.33R
ARBOR VITAE    PTCLDY   -16 -23  72 CALM      30.34R
WOODRUFF       PTCLDY   -16 -23  72 CALM      30.34R
RHINELANDER    PTCLDY   -18 -23  77 W7        30.35R WCI -35
6HR MIN TEMP: -20; 6HR MAX TEMP:  -8;

EAGLE RIVER    PTCLDY   -21 -29  68 CALM      30.32S
LAND O LAKES   CLEAR    -30 -37  67 CALM      30.32R
PHILLIPS       CLEAR    -19 -24  79 CALM      30.37S
TOMAHAWK       PTCLDY   -21 -28  71 CALM      30.38R
MEDFORD        PTCLDY   -13 -17  82 CALM      30.39R
MERRILL        PTCLDY   -21 -26  74 CALM      30.39S
$$

WIZ029-030-035-036-043>047-271300-
CENTRAL WISCONSIN

CITY           SKY/WX    TMP DP  RH WIND       PRES   REMARKS
WAUSAU         PTCLDY    -6 -14  68 NW8       30.41R WCI -21
6HR MIN TEMP:  -7; 6HR MAX TEMP:  -1;

MOSINEE        CLEAR     -9 -15  77 W5        30.42R WCI -21
MARSHFIELD     CLEAR     -8 -14  74 W6        30.43R WCI -21
6HR MIN TEMP: -10; 6HR MAX TEMP:  -2;

STEVENS POINT  CLEAR    -16 -21  78 CALM      30.45R
WAUPACA        CLEAR     -1 -11  61 W5        30.47R WCI -11
WAUTOMA        NOT AVBL
WISC RAPIDS    FAIR     -13 -19  75 SW3       30.48R
6HR MIN TEMP: -13; 6HR MAX TEMP:  -1;

CAMP DOUGLAS   NOT AVBL
$$

WIZ011>013-019>022-031-037>040-048>050-271300-
NORTHEAST WISCONSIN

CITY           SKY/WX    TMP DP  RH WIND       PRES   REMARKS
ANTIGO         PTCLDY   -12 -18  76 CALM      30.37R
SHAWANO        CLEAR     -3 -12  66 W5        30.46R WCI -13
OCONTO         CLEAR    -10 -15  79 W3        30.46R
STURGEON BAY   CLEAR     -2 -11  65 W5        30.45R WCI -12
6HR MIN TEMP:  -8; 6HR MAX TEMP:   0;

GREEN BAY      CLEAR     -2  -9  72 W5        30.46R WCI -12
6HR MIN TEMP:  -2; 6HR MAX TEMP:   2;

MANITOWOC      NOT AVBL
APPLETON       CLEAR     -6 -13  71 W10       30.45R WCI -23
CLINTONVILLE   CLEAR     -6 -13  71 W6        30.46R WCI -18
OSHKOSH        CLEAR     -3 -11  68 W8        30.47R WCI -18
6HR MIN TEMP:  -3; 6HR MAX TEMP:   2;

$$

WIZ032>034-041-042-053>061-271300-
SOUTHWEST WISCONSIN

CITY           SKY/WX    TMP DP  RH WIND       PRES   REMARKS
LA CROSSE      CLEAR     -8 -14  74 S3        30.55R
6HR MIN TEMP:  -9; 6HR MAX TEMP:  -3;

SPARTA         CLEAR    -19 -25  73 CALM      30.52R
VIROQUA        CLEAR    -10 -14  82 W7        30.46R WCI -25
BOSCOBEL       PTCLDY   -15 -20  78 SW3       30.57R
6HR MIN TEMP: -15; 6HR MAX TEMP:  -8;

PRAIRIE DU CHI PTCLDY   -14 -20  73 CALM      30.57R
PLATTEVILLE    FAIR     -11 -15  81 W5        30.50R WCI -23
$$

WIZ056-057-062-063-064-067-068-271300-
SOUTH CENTRAL WISCONSIN

CITY           SKY/WX    TMP DP  RH WIND       PRES   REMARKS
REEDSBURG      FAIR     -12 -16  82 CALM      30.49R
BARABOO/DELLS  FAIR      -8 -14  77 CALM      30.48R
LONE ROCK      NOT AVBL
MINERAL POINT  PTCLDY    -8 -13  77 NW3       30.47R
MADISON        CLEAR     -3 -11  68 W3        30.50R
6HR MIN TEMP:  -4; 6HR MAX TEMP:   0;

MIDDLETON      CLEAR     -2 -10  68 CALM      30.50R
WATERTOWN      CLEAR     -9 -14  76 CALM      30.49R
MONROE         CLEAR     -4  -8  84 W12       30.47R WCI -22
JANESVILLE     CLEAR     -8 -15  71 CALM      30.51R
$$

WIZ051-052-058>065-066-070>072-271300-
SOUTHEAST WISCONSIN

CITY           SKY/WX    TMP DP  RH WIND       PRES   REMARKS
MILWAUKEE      CLEAR      1  -9  62 NW9       30.49R WCI -14
6HR MIN TEMP:   1; 6HR MAX TEMP:   6;

WAUKESHA       NOT AVBL
MILWAUKEE/TIMM FAIR       0  -9  65 W3        30.49R
RACINE         CLEAR     -2 -11  65 W9        30.50R WCI -18
6HR MIN TEMP:  -2; 6HR MAX TEMP:   2;

BURLINGTON     NOT AVBL
KENOSHA        CLEAR     -5 -12  72 W8        30.49R WCI -20
6HR MIN TEMP: -10; 6HR MAX TEMP:  -3;

FOND DU LAC    CLEAR     -7 -13  75 S5        30.48R WCI -18
6HR MIN TEMP:  -7; 6HR MAX TEMP:   2; 6HR PCP: TRACE;

SHEBOYGAN      CLEAR     -3 -10  72 W5        30.47R WCI -13
6HR MIN TEMP:  -3; 6HR MAX TEMP:   2;

WEST BEND      CLEAR      0  -9  65 W3        30.46R
JUNEAU         CLEAR     -6 -11  79 CALM      30.48R
$$

LSZ147-162-271300-
LAKE SUPERIOR

STATION/POSITION TIME  TEMP    WIND        PRES    WAVE
                       AIR SEA DIR/SP/G            HT/PER
                 (UTC) (F)     (DEG/KT/KT) (MB)    (FT/S)
DEVILS ISLAND    1100    4     270/ 12/ 13 1031.8R
PORT WING        1100   -4     190/  7/  9 1031.2
SAXON HARBOR     1100   -4     190/  5/  8 1030.5R
$$

LMZ867-665-643>646-271300-
LAKE MICHIGAN

STATION/POSITION TIME  TEMP    WIND        PRES    WAVE
                       AIR SEA DIR/SP/G            HT/PER
                 (UTC) (F)     (DEG/KT/KT) (MB)    (FT/S)
NORTHPORT PIER   1127    0     280/  4/  7 1030.5R
SISTER BAY       0958   -2        CALM       N/A
KEWAUNEE LAKESHO 1100          300/  7/  7 1029.9R
SHEBOYGAN LAKESH 1100    3     280/  9/ 11 1033.5R
PORT WASHINGTON  1140    1     290/  8/ 11 1033.2R
MILWAUKEE LAKESH 1100    3     300/ 10/ 11   N/A
KENOSHA   LAKESH 1100    0     290/ 10/ 15 1031.5S
$$

TC  - TEMPERATURE IN CELSIUS
VSB - VISIBILITY IN STATUTE MILES
WCI - WIND CHILL INDEX
HX  - HEAT INDEX



USA.gov is the U.S. government's official web portal to all federal, state and local government web resources and services.